User: anonymous   Login
Location: Unspecified
(0.0000°N, 0.0000°E)
Time: 23:33:34
(UTC+00:00)
Language:

STARLINK-30390 - Orbit

View from above orbital plane
View from above orbital plane
View from above satellite
View from above satellite

Ground track
Ground track

The orbit is defined by the following mean orbital elements,

1 57819U          26145.45179178 +.00000000 +00000-0 +48443-4 0 00000
2 57819  43.0022 161.0489 0001500 266.6224  93.4456 15.27579771    08
Epoch (UTC): 25 May 2026 10:50:34
Eccentricity: 0.0001500
inclination: 43.0022°
perigee height: 482 km
apogee height: 484 km
right ascension of ascending node: 161.0489°
argument of perigee: 266.6224°
revolutions per day: 15.27579771
mean anomaly at epoch: 93.4456°

The dashed part of the orbit path shows where the satellite is in the earth's shadow,  

DLR